Погода в Балясном

Украина / Полтавская область     49°49′13″N   34°20′07″E
В апреле 2022 года жителям России запретили посещать сайт meteo.paraplan.net по решению Генеральной прокуратуры. Аудитория сайта уменьшилась в 10 раз. Владельцы сайта не видят смысла в поддержке погодного сервера в таких условиях. Сайт будет закрыт в октябре.
темп.,
°C
ветер,
м/с
пор.,
м/с
влажн.,
%
обл.,
%
осадки,
мм/ч
давл.,
гПа
погр.,
м
3 октября, пн
пн300:00+9з81184100 0.1 9981126
03:00+7з81287100 0.2 10001056
06:00+8зюз81383100 0.2 10001268
09:00+8зюз61187100 0.9 1002931
12:00+12зюз91473100 0.5 10031334
15:00+14зюз9146761 1.6 10051642
18:00+12юз611715 0.8 1006399
21:00+9ююз5118439 1.0 1007345
4 октября, вт
вт400:00+10ююз71473100 0.0 1007635
03:00+10ююз8137686 0.0 1008783
06:00+9юз71287100 0.4 1008795
09:00+9юз4881100 0.7 1010800
12:00+11юз71067100 0.1 10111285
15:00+11зюз71169100 0.4 10131330
18:00+9зюз597813 0.2 1015556
21:00+8юз41184100 0.2 1016451
5 октября, ср
ср500:00+9зюз51182100 0.1 1016519
03:00+9зюз51185100 0.1 1017519
06:00+8зюз499189 0.1 1018417
09:00+9з5109073 0.1 1020501
12:00+11з6874100 0.1 1021988
15:00+10зсз5877100 0.3 1022862
18:00+10зсз61077100 0.2 1023640
21:00+8з3888100 0.2 1025248
6 октября, чт
чт600:00+7з3592100 0.0 102595
03:00+8зюз3589100 0.0 1025112
06:00+7юз3590100 0.0 102595
09:00+10юз4680100 0.0 1025244
12:00+15зюз576079 0.0 1024740
15:00+16зюз575780 0.0 1024701
18:00+14зюз476758 0.0 1024147
21:00+12юз4775100 0.0 1024117
7 октября, пт
пт700:00+11з377897 0.0 1024126
03:00+10сз379253 0.0 1024120
06:00+9сз379610 0.0 1025128
09:00+12ссз47845 0.0 1026311
12:00+16ссз45582 0.0 1026829
15:00+17ссз45430 0.0 10261081
18:00+13ссз34600 0.0 102646
21:00+10с34750 0.0 102749